Find Starlink 36571

NORAD ID: 67579 Int'l Des: 2026-016 Owner: SPXS Country: US Constellation: starlink operational
LEOCIRCULARRETROGRADE

当前视图

正在加载3D地球...

关于 Starlink 36571

正在加载描述...

即将过境

Passes for default location (London). Set your location on the main map for personalized predictions.

高度历史

Loading altitude history...

两行轨道根数

1 67579U 26016U 26146.59279726 .00025600 00000-0 79239-3 0 9991
2 67579 97.2868 206.9137 0000478 12.5934 347.5321 15.33453952 18809
Epoch: May 26, 2026 • Age: 6 hours

当前状态

高度 471.5 km
速度 7.63 km/s
星下点 42.56°N, 5.88°E
发射日期 Jan 25, 2026
运行时间 0.3 years
类型 internet

技术详情

分类 Payload
质量 575.00 kg
干质量 530.00 kg
总质量 575.00 kg
长度 0.30 m
直径 4.10 m
跨度 29.00 m
形状 Box + pan
制造商 SPXS
平台类型 Starlink V2MO
阶段状态 In Orbit
所有者/国家 SPXS/US

Most Searched